Location: *
(35.2348°S, 91.3916°E)
Time: 03:28:28
(UTC+00:00)

SeaSat 1 - Pass Details

Date: 23 October 2019
Orbit: 745 x 747 km, 108.0° (Epoch: 14 November)

Event Time Altitude Azimuth Distance (km) Brightness Sun altitude
Rises 12:45:00 0° 164° (SSE) 3,220 5.8 -6.5°
Reaches altitude 10° 12:47:23 10° 171° (S) 2,289 5.1 -7.0°
Maximum altitude 12:52:01 40° 239° (WSW) 1,101 4.1 -7.9°
Drops below altitude 10° 12:56:36 10° 308° (NW) 2,265 5.4 -8.8°
Sets 12:58:58 0° 315° (NW) 3,182 6.0 -9.2°
